Orbital Elements at Epoch 2459200.5 (2020-Dec-17.0) TDB
Reference: JPL 16 (heliocentric ecliptic J2000)
Element | Value | Uncertainty (1-sigma) | Units |
e | .2156945783742754 | 2.6017e-08 | |
a | 2.339336346713912 | 9.4663e-09 | au |
q | 1.834754179733837 | 6.2037e-08 | au |
i | 2.621547708525683 | 4.3984e-06 | deg |
node | 22.10564567027104 | 6.7825e-05 | deg |
peri | 272.1954822620307 | 6.8733e-05 | deg |
M | 112.267160496929 | 1.141e-05 | deg |
tp | 2458792.943646894462 (2019-Nov-05.44364689) | 4.0664e-05 | TDB |
period | 1306.885169880174 3.58 | 7.9326e-06 2.172e-08 | d yr |
n | .275464140459263 | 1.672e-09 | deg/d |
Q | 2.843918513693987 | 1.1508e-08 | au |
|
| | Orbit Determination Parameters
Additional Information
|